AO-07 1 07530U 74089B 26194.64811419 -.00000028 00000-0 11732-3 0 9997 2 07530 101.9905 208.1705 0012658 81.2119 35.6373 12.53698537363838 UO-11 1 14781U 84021B 26194.46481698 .00000706 00000-0 77303-4 0 9991 2 14781 97.8075 159.7493 0009192 96.2389 263.9877 14.90846440261040 LO-19 1 20442U 90005G 26194.62424062 .00000043 00000-0 31846-4 0 9997 2 20442 98.8848 217.1575 0012493 125.7335 234.5012 14.34130464906183 AO-27 1 22825U 93061C 26194.15132456 .00000041 00000-0 32598-4 0 9993 2 22825 98.6869 261.5539 0008876 31.5428 328.6285 14.30948752710713 FO-29 1 24278U 96046B 26194.55731462 .00000020 00000-0 55297-4 0 9997 2 24278 98.5220 39.8146 0350433 28.1834 333.7792 13.53275527476737 GO-32 1 25397U 98043D 26194.54595469 .00000016 00000-0 27074-4 0 9990 2 25397 99.0084 187.9711 0002146 116.9543 243.1854 14.24433163455084 ISS 1 25544U 98067A 26194.31484285 .00004029 00000-0 81266-4 0 9999 2 25544 51.6305 170.7871 0006687 290.3592 69.6678 15.48997295575806 NO-44 1 26931U 01043C 26194.42110003 .00000022 00000-0 39237-4 0 9994 2 26931 67.0493 176.4180 0005942 266.4471 93.5951 14.31964599294209 SO-50 1 27607U 02058C 26194.65572767 .00000372 00000-0 61967-4 0 9999 2 27607 64.5517 47.0888 0074573 257.5598 101.7156 14.83096658268382 CO-55 1 27844U 03031E 26194.45028445 .00000157 00000-0 86848-4 0 9997 2 27844 98.6742 202.6793 0010803 107.1223 253.1140 14.24350896195418 RS-22 1 27939U 03042A 26194.62856855 .00000659 00000-0 10965-3 0 9990 2 27939 98.3472 19.7361 0011114 178.1971 247.0000 14.73513085219444 CO-65 1 32785U 08021C 26194.56400278 .00003139 00000-0 19898-3 0 9994 2 32785 97.8288 176.5377 0007178 306.1593 53.8971 15.09691192989175 CO-66 1 32791U 08021J 26194.50259132 .00010586 00000-0 32808-3 0 9996 2 32791 97.7522 193.6748 0002886 159.9785 200.1570 15.33629018991329 RS-30 1 32953U 08025A 26194.57574850 .00000006 00000-0 -23497-4 0 9996 2 32953 82.5053 339.0238 0018581 252.7325 107.1722 12.43180636822976 SRMSAT 1 37841U 11058D 26194.45621951 .00000344 00000-0 42889-4 0 9999 2 37841 19.9713 260.4725 0011811 132.1672 338.6137 14.11580880761534 ZACUBE-1 1 39417U 13066B 26194.46840326 .00001341 00000-0 10703-3 0 9998 2 39417 97.8010 156.9353 0043932 160.7484 199.5412 15.01324440684670 Delfi-N3xt 1 39428U 13066N 26194.34448216 .00003488 00000-0 30393-3 0 9990 2 39428 97.8335 114.6340 0075810 118.8440 242.0417 14.95347794678531 GOMX-1 1 39430U 13066Q 26194.60518111 .00000859 00000-0 13537-3 0 9994 2 39430 97.6474 33.4013 0128438 353.3274 6.6217 14.69540867673799 LO-74 1 39440U 13066AA 26194.38680765 .00001928 00000-0 18138-3 0 9995 2 39440 97.8910 143.4812 0055889 301.4913 58.0852 14.93959550680906 AO-73 1 39444U 13066AE 26194.43695187 .00003565 00000-0 22113-3 0 9996 2 39444 97.8287 166.4387 0038021 113.3139 247.2098 15.09805136683622 DTUSAT-2 1 40030U 14033W 26194.52181943 .00003628 00000-0 19628-3 0 9991 2 40030 98.0873 193.9283 0009206 136.6292 223.5665 15.15340121656677 LILACSAT-2 1 40908U 15049K 26194.64457852 .00011916 00000-0 19717-3 0 9999 2 40908 97.4627 232.5027 0008322 146.1143 214.0642 15.52321407599859 Lapan A3 1 41603U 16040E 26194.62382409 .00001911 00000-0 61741-4 0 9996 2 41603 97.1503 189.9052 0008275 283.1864 76.8455 15.33271469558867 CAS-2T 1 41847U 16066G 26194.21207593 .00000617 00000-0 94682-4 0 9991 2 41847 98.3814 269.6505 0342350 50.7667 312.3386 14.44767960508557 TechnoSat 1 42829U 17042E 26194.37805134 .00002037 00000-0 14687-3 0 9993 2 42829 97.4311 351.0449 0017599 9.3532 350.8019 15.05104462490648 AO-91 1 43017U 17073E 26194.59796665 .00003877 00000-0 17078-3 0 9999 2 43017 97.4670 61.2749 0148173 237.0562 121.6348 15.13047327469386 S-Net D 1 43186U 18014G 26194.65207741 .00002544 00000-0 13249-3 0 9997 2 43186 97.5338 99.2786 0006345 291.6069 68.4488 15.16909537462771 S-Net B 1 43187U 18014H 26194.53211748 .00002699 00000-0 14046-3 0 9994 2 43187 97.5343 99.1469 0006917 285.8591 74.1880 15.16878568462752 S-Net A 1 43188U 18014J 26194.65080865 .00002553 00000-0 13292-3 0 9993 2 43188 97.5354 99.4787 0006820 286.4267 73.6217 15.16917967462778 S-Net C 1 43189U 18014K 26194.60210099 .00002770 00000-0 14408-3 0 9994 2 43189 97.5372 99.5092 0008148 277.0729 82.9577 15.16870435461312 Ten-Koh 1 43677U 18084G 26194.48752162 .00001850 00000-0 14217-3 0 9997 2 43677 98.0755 27.9569 0009943 35.2579 324.9301 15.03040122420115 PO-101 1 43678U 18084H 26194.57723214 .00001261 00000-0 10503-3 0 9994 2 43678 98.1217 31.9412 0012923 89.3965 270.8738 15.00559878420172 QO-100 1 43700U 18090A 26194.56614737 .00000140 00000-0 00000-0 0 9998 2 43700 0.0034 108.4151 0002144 50.9273 1.6930 1.00270005 27946 MinXSS-2 1 43758U 18099A 26193.75808016 .00031684 00000-0 59117-3 0 9998 2 43758 97.4535 270.8221 0008420 167.9951 192.1502 15.48699812418080 AO-95 1 43770U 18099N 26194.15889186 .00007642 00000-0 28877-3 0 9990 2 43770 97.4377 254.3164 0007100 248.3656 111.6827 15.27248870417188 SNUSat 2 1 43782U 18099AA 26194.63072291 .00004921 00000-0 21688-3 0 9997 2 43782 97.4048 247.6122 0010071 193.2269 166.8705 15.22224857417051 SnugLite 1 43784U 18099AC 26194.60978169 .00006800 00000-0 25363-3 0 9997 2 43784 97.3858 248.6369 0003465 163.9450 196.1899 15.27736676417355 ITASat 1 1 43786U 18099AE 26194.63128045 .00003908 00000-0 18775-3 0 9997 2 43786 97.4017 245.6182 0010808 256.6062 103.3968 15.19370289416927 EAGLET 1 1 43790U 18099AJ 26193.58069118 .00001913 00000-0 11153-3 0 9997 2 43790 97.4222 242.5773 0009508 254.7473 105.2707 15.13122395416178 ESEO 1 43792U 18099AL 26194.58823469 .00001420 00000-0 10600-3 0 9996 2 43792 97.3955 230.8446 0010885 239.9765 120.0383 15.04317800415775 JO-97 1 43803U 18099AX 26194.64356845 .00010300 00000-0 31045-3 0 9998 2 43803 97.4122 257.5822 0006719 162.7169 197.4304 15.34486685417685 Suomi 100 1 43804U 18099AY 26193.73443014 .00007931 00000-0 28390-3 0 9998 2 43804 97.4181 254.0402 0010278 180.4241 179.6992 15.28995113417320 ISAT 1 43879U 18111D 26194.39388763 .00076432 00000-0 61818-3 0 9991 2 43879 97.5857 131.7334 0007616 143.7204 216.4576 15.70549542415279 UWE-4 1 43880U 18111E 26193.76628622 .00027634 00000-0 53442-3 0 9998 2 43880 97.5844 123.3656 0005747 204.5147 155.5830 15.47716069414736 Sparrow 1 43881U 18111F 26194.36772689 .00189127 00000-0 82142-3 0 9994 2 43881 97.6078 137.8824 0007880 141.7583 218.4246 15.84286973415503 Prox-1 1 44339U 19036A 26194.42673105 .00007059 00000-0 66459-3 0 9996 2 44339 23.9956 298.8895 0005861 348.2217 11.8145 14.91225199377397 Taurus 1 1 44530U 19059C 26194.61294154 .00004243 00000-0 67871-3 0 9999 2 44530 98.6425 1.0878 0007929 220.8695 139.1917 14.72360857362538 TO-108 1 44881U 19093C 26194.63283889 .00000960 00000-0 11429-3 0 9991 2 44881 97.7530 266.2190 0013728 6.8711 353.2691 14.86561637355344 RS-44 1 44909U 19096E 26194.43025578 .00000001 00000-0 -46196-4 0 9999 2 44909 82.5240 322.2668 0218551 83.0989 279.4919 12.79748942305706 SALSAT 1 46495U 20068K 26194.50246524 .00004373 00000-0 15263-3 0 9991 2 46495 97.8854 199.1769 0008994 199.0888 161.0016 15.30157505319387 CSS (TIANHE-1) 1 48274U 21035A 26194.54839549 .00000774 00000-0 14285-4 0 9997 2 48274 41.4687 161.8154 0002309 295.5855 64.4744 15.58055023297287 CUTE 1 49263U 21088D 26194.26446588 .01505296 18435-2 11774-2 0 9991 2 49263 97.4003 296.3529 0007829 295.5641 64.4836 16.15178299266726 TeikyoSat 4 1 49396U 21102B 26194.63537750 .00001101 00000-0 72246-4 0 9993 2 49396 97.3666 223.0906 0011608 193.9550 166.1360 15.09595092256719 Z-Sat 1 49399U 21102E 26194.62497231 .00003516 00000-0 17325-3 0 9992 2 49399 97.3318 229.1462 0017343 149.6679 210.5563 15.18458881257457 KOSEN 1 1 49402U 21102H 26194.61549448 .00004512 00000-0 17143-3 0 9999 2 49402 97.3172 236.2627 0015365 112.5688 247.7179 15.27199622258050 HO-113 1 50466U 21131B 26194.57251277 .00000281 00000-0 10046-3 0 9992 2 50466 98.4990 286.8200 0004702 35.0283 325.1215 14.41381145238916 SNUGLITE 2 1 52899U 22065F 26194.33783903 .00000457 00000-0 95704-4 0 9991 2 52899 98.2232 339.1269 0006311 307.6333 52.4296 14.64392439214820 UmKA 1 (RS40S) 1 57172U 23091G 26194.54130768 .00003195 00000-0 14653-3 0 9993 2 57172 97.5041 253.1397 0013211 34.9922 325.2179 15.21109946168010 CubeBel-2 (EU11S) 1 57175U 23091K 26194.54951839 .00007288 00000-0 25490-3 0 9994 2 57175 97.5043 258.0112 0009740 32.0297 328.1533 15.29798092168335 RS-38S 1 57189U 23091Z 26194.52424067 .00009635 00000-0 26974-3 0 9991 2 57189 97.5086 264.5504 0005801 346.5106 13.5982 15.36840572168736 SONATE-2 1 59112U 24043Q 26194.37823607 .00027473 00000-0 33131-3 0 9996 2 59112 97.5541 346.4234 0006950 111.8848 248.3148 15.60724269131971 GRBBeta 1 60237U 24128C 26194.23501684 .00001948 00000-0 14278-3 0 9993 2 60237 61.9896 124.8657 0037305 140.2081 220.1759 15.06800912110196 Curium One 1 60242U 24128H 26194.47916998 .00004123 00000-0 24249-3 0 9990 2 60242 61.9788 112.6284 0036700 135.9350 224.4681 15.12851567110438 ROBUSTA-3A 1 60243U 24128J 26194.32672485 .00004545 00000-0 27208-3 0 9991 2 60243 61.9864 115.7855 0038243 133.5898 226.8383 15.11970668110378 CatSat 1 60246U 24125J 26193.66510626 .00052518 00000-0 59540-3 0 9992 2 60246 97.2063 46.5546 0020726 92.0913 268.2719 15.61960038111364 HYPERVIEW-1G (RS66S) 1 61772U 24199AP 26194.59972327 .00168570 00000-0 71648-3 0 9990 2 61772 97.2815 75.8124 0008237 151.4421 208.7302 15.84791404138841 AO-123 1 61781U 24199AY 26194.61685320 .00004586 00000-0 13267-3 0 9996 2 61781 97.2968 63.0515 0012836 206.6182 153.4404 15.36039311137982 JINJUSat 1B 1 63210U 25052A 26194.17468450 .00010553 00000-0 31992-3 0 9994 2 63210 97.3979 90.9756 0003457 33.9835 326.1629 15.34312050 74086 NUSHSAT 1 1 63211U 25052B 26194.63060728 .00012255 00000-0 34065-3 0 9997 2 63211 97.3950 92.0932 0003355 43.1993 316.9514 15.37001513 74206 TEVEL2-4 1 63213U 25052D 26194.64747267 .00011283 00000-0 32889-3 0 9992 2 63213 97.3876 91.0958 0003679 54.9204 305.2385 15.35531702 74175 TEVEL2-5 1 63214U 25052E 26194.14966326 .00011850 00000-0 34745-3 0 9990 2 63214 97.3876 90.5369 0003789 56.8499 303.3107 15.35333367 74094 TEVEL2-6 1 63215U 25052F 26193.70635362 .00012019 00000-0 35290-3 0 9999 2 63215 97.3879 90.0772 0003782 60.8657 299.2965 15.35286778 74026 TEVEL2-1 1 63217U 25052H 26193.67932412 .00011444 00000-0 34224-3 0 9990 2 63217 97.3853 89.6437 0004433 65.2904 294.8800 15.34718554 74008 TEVEL2-3 1 63218U 25052J 26194.65094920 .00010730 00000-0 32020-3 0 9992 2 63218 97.3853 90.6416 0004147 64.5751 295.5921 15.34803352 74151 TEVEL2-2 1 63219U 25052K 26194.65746567 .00010878 00000-0 32511-3 0 9992 2 63219 97.3847 90.6260 0004426 63.9557 296.2141 15.34751821 74154 TEVEL2-9 1 63237U 25052AD 26194.14738760 .00010512 00000-0 33505-3 0 9991 2 63237 97.3915 89.4327 0007832 62.8126 297.3913 15.32691499 74009 TEVEL2-7 1 63238U 25052AE 26194.65055022 .00009367 00000-0 30172-3 0 9994 2 63238 97.3910 89.8399 0007866 61.2013 299.0017 15.32385883 74071 TEVEL2-8 1 63239U 25052AF 26194.65905755 .00009789 00000-0 31532-3 0 9991 2 63239 97.3909 89.8240 0007939 61.9516 298.2528 15.32371934 74071 SPIRONE 1 66657U 25274H 26194.58349723 .00000760 00000-0 77318-4 0 9996 2 66657 97.7475 123.4987 0010483 289.7430 70.2659 14.93649069 34168 K-HERO 1 66660U 25274L 26194.37987305 .00000689 00000-0 69843-4 0 9995 2 66660 97.7483 123.4784 0012423 294.7985 65.1943 14.94057829 34148 SNUGLITE-III DURI 1 66661U 25274M 26194.36704722 .00000894 00000-0 88959-4 0 9992 2 66661 97.7481 123.4864 0013023 295.8806 64.1071 14.94088196 34149 SAKHACUBE-CHOLBON 1 67290U 25313AU 26194.14214962 .00006331 00000-0 25382-3 0 9995 2 67290 97.3930 268.8588 0007656 259.7002 100.3373 15.25339665 29936 RS95S (QMR-KWT-2) 1 67291U 25313AV 26194.17036216 .00008383 00000-0 31937-3 0 9995 2 67291 97.3928 269.1199 0007417 255.5294 104.5122 15.26943654 29958 Ten-Koh2 1 68261U 25241B 26194.31048175 .00002520 00000-0 11581-3 0 9996 2 68261 51.6592 195.2806 0004575 223.7654 136.2962 15.24162225 18899 JACK-002 1 68417U 26067B 26194.43595242 .00003898 00000-0 18578-3 0 9993 2 68417 97.4579 152.7097 0002864 137.7183 222.4273 15.19701229 15937 DISCO 2 1 68431U 26067R 26194.46198067 .00004241 00000-0 20327-3 0 9994 2 68431 97.4610 152.7244 0000388 169.2339 190.8904 15.19454991 15935 HADES-SA (SpinnyONE) 1 68446U 26067AG 26194.43111462 .00010969 00000-0 51268-3 0 9993 2 68446 97.4412 152.3520 0006248 9.6807 350.4548 15.19944702 15912 PARUS-6U1 1 68456U 26067AS 26194.42982832 .00003391 00000-0 17114-3 0 9993 2 68456 97.4565 152.3965 0004939 355.0714 5.0470 15.17782895 15913 SAL-E 1 68458U 26067AU 26194.35432323 .00004597 00000-0 22854-3 0 9998 2 68458 97.4489 152.2437 0005533 5.8807 354.2491 15.18123958 15908 FSI-SAT 2 1 68792U 26088A 26194.38154105 .00001819 00000-0 12522-3 0 9999 2 68792 97.5087 342.9902 0014709 23.7300 336.4603 15.07030401 12239 OrigamiSat 2 1 68795U 26088D 26194.35448014 .00006983 00000-0 44089-3 0 9994 2 68795 97.5095 343.1830 0014311 353.4749 6.6292 15.09300900 12240 ARICA 2 1 68796U 26088E 26194.36239163 .00002730 00000-0 17808-3 0 9994 2 68796 97.5086 343.1584 0015194 354.2198 5.8853 15.08621968 12247 WASEDA-SAT-ZERO-II 1 68797U 26088F 26194.35366026 .00003451 00000-0 22225-3 0 9993 2 68797 97.5084 343.1678 0014909 353.8181 6.2862 15.08919334 12242 MANGARO-II-Piscus 1 68798U 26088G 26194.40885696 .00001886 00000-0 12301-3 0 9993 2 68798 97.5097 343.2578 0018634 356.2731 3.8356 15.08961290 12254 IO-86 1 40931U 25360.30710720 .00000000 00000-0 12800-3 0 00 2 40931 6.0006 332.5373 0012733 338.8432 8.1437 14.79075515 01 LILIUM-4 1 71922C 26067AC 26089.50133053 -.00014632 00000 0 -74472-3 0 04 2 71922 97.4497 49.1617 0004341 5.9603 355.7042 15.16896692 16